Flag for U.S.A. Weather past 2 weeks in Philadelphia, Pennsylvania, U.S.A.

Now
28 °F

Partly sunny.


Feels Like: 19 °F
Forecast: 16 / 34 °F
Wind: 9 mph from East

Location: Philadelphia International Airport

Current Time: Jan 29, 2015 at 9:34:51 AM

Latest Report: Jan 29, 2015 at 8:54 AM


Visibility: 10 mi

Pressure: 30.32 "Hg

Humidity: 43%

Dew point: 8 °F

Location of PhiladelphiaLocation

Historic Weather in Philadelphia — Graph

°F

Philadelphia temperature yesterday

Maximum temperature yesterday: 34 °F (at 2:54 PM)
Minimum temperature yesterday: 20 °F (at 1:54 AM)
Average temperature yesterday: 27 °F

Past Weeks' High & Low Weather Summary

 TemperatureHumidityPressure
High46 °F (Jan 25, 12:54 PM)100% (Jan 18, 1:54 PM)30.45 "Hg (Jan 18, 1:54 PM)
Low19 °F (Jan 17, 4:54 AM)24% (Jan 28, 2:54 PM)29.35 "Hg (Jan 24, 1:54 PM)
Average32 °F66%30.01 "Hg
* Reported Jan 14 7:54 AM — Jan 29 7:54 AM, Philadelphia, Weather by CustomWeather, © 2014

Note: Actual official high and low records may vary slightly from our data, if they occured in-between our weather recording intervals... More about our weather records

Advertising

Philadelphia weather history for previous 24 hours

 ConditionsComfort  
Time TempWeatherWind HumidityBarometerVisibility
7:54 AM
Jan 29
23 °FScattered clouds.3 mph50%30.35 "Hg10 mi
6:54 AM23 °FPassing clouds.3 mph44%30.34 "Hg10 mi
5:54 AM22 °FPassing clouds.6 mph48%30.33 "Hg10 mi
4:54 AM22 °FClear.6 mph44%30.33 "Hg10 mi
3:54 AM24 °FClear.No wind40%30.32 "Hg10 mi
2:54 AM24 °FClear.7 mph40%30.32 "Hg10 mi
1:54 AM25 °FClear.5 mph37%30.32 "Hg10 mi
12:54 AM26 °FClear.7 mph37%30.31 "Hg10 mi
11:54 PM
Jan 28
28 °FClear.6 mph32%30.31 "Hg10 mi
10:54 PM29 °FClear.7 mph31%30.30 "Hg10 mi
9:54 PM29 °FClear.9 mph33%30.29 "Hg10 mi
8:54 PM30 °FClear.15 mph30%30.28 "Hg10 mi
7:54 PM30 °FClear.9 mph31%30.27 "Hg10 mi
6:54 PM32 °FClear.8 mph29%30.24 "Hg10 mi
5:54 PM32 °FClear.9 mph29%30.22 "Hg10 mi
4:54 PM34 °FSunny.9 mph24%30.19 "Hg10 mi
3:54 PM34 °FSunny.14 mph25%30.16 "Hg10 mi
2:54 PM34 °FSunny.14 mph24%30.15 "Hg10 mi
1:54 PM33 °FSunny.13 mph26%30.14 "Hg10 mi
12:54 PM31 °FSunny.20 mph29%30.13 "Hg10 mi
11:54 AM30 °FSunny.21 mph30%30.14 "Hg10 mi
10:54 AM27 °FSunny.21 mph32%30.15 "Hg10 mi
9:54 AM25 °FPassing clouds.20 mph37%30.14 "Hg10 mi
Weather by CustomWeather, © 2014

See weather overviewHow to use our weather pages